Weather Roundup
Issued by NWS

Home | Current Version | Previous Version | Text Only | Print | Product List | Glossary On
Versions: 1 2 3 4 5 6 7 8 9 10 11 12 13 14 15 16 17 18 19 20 21 22 23 24 25 26 27 28 29 30 31 32 33 34 35 36 37 38 39 40 41 42 43 44 45 46 47 48 49 50
000
NZUS93 KARX 251059
HRRWXR

CURRENT HOURLY OBSERVATIONS ACROSS
MUCH OF THE UPPER MISSISSIPPI VALLEY
NATIONAL WEATHER SERVICE LA CROSSE WI
600 AM CDT WED APR 25 2018


...SOUTHEAST MINNESOTA...


CITY           SKY/WX    TMP DP  RH WIND       PRES   REMARKS
ROCHESTER      FAIR      34  29  82 N9        30.20S WCI  27
ROCHESTER/MAYO FAIR      37  29  70 N3        30.21F
WINONA         FAIR      37  32  81 CALM      30.20S
AUSTIN         FAIR      34  28  80 N5        30.20S WCI  30
ALBERT LEA     FAIR      36  27  69 N6        30.21S WCI  31
DODGE CENTER   FAIR      34  28  80 N7        30.21S WCI  28
PRESTON        FAIR      36  32  87 N7        30.19S WCI  30
OWATONNA       FAIR      36  27  69 N7        30.23R WCI  30
FARIBAULT      NOT AVBL
$$

...ELSEWHERE IN MINNESOTA...


CITY           SKY/WX    TMP DP  RH WIND       PRES   REMARKS
MINNEAPOLIS    FAIR      36  25  64 N8        30.26R WCI  30
INTNL FALLS    FAIR      21  19  92 CALM      30.22F
DULUTH         FAIR      28  21  75 N6        30.24S WCI  22
RED WING       FAIR      34  25  69 CALM      30.23S
REDWOOD FALLS  CLEAR     32  27  81 N5        30.27S WCI  27
MANKATO        FAIR      35  27  72 N9        30.25R WCI  28
WORTHINGTON    CLEAR     33  29  85 N13       30.25S WCI  24
FAIRMONT       CLEAR     35  30  82 N8        30.24S WCI  29
$$

...SOUTHWEST WISCONSIN...


CITY           SKY/WX    TMP DP  RH WIND       PRES   REMARKS
LA CROSSE      FAIR      38  34  85 NW9       30.20R WCI  31
PRAIRIE DU CHI FAIR      43  32  65 N3        30.16S
BOSCOBEL       FAIR      36  32  85 CALM      30.17R
LONE ROCK      FAIR      42  37  82 CALM      30.16R
PLATTEVILLE    FAIR      38  32  80 N5        30.14S WCI  34
FORT MC COY    FAIR      32  31  99 CALM      30.20S
MAUSTON-NEW LI FAIR      36  34  92 W3        30.17S
VIROQUA        FAIR      36  36 100 N6        30.17R WCI  31
WIS DELLS      FAIR      39  34  83 N5        30.15S
$$

...ELSEWHERE IN WISCONSIN...


CITY           SKY/WX    TMP DP  RH WIND       PRES   REMARKS
MILWAUKEE      FAIR      40  34  79 N9        30.12R WCI  34
MADISON        FAIR      38  31  76 N6        30.14R WCI  33
GREEN BAY      FAIR      36  31  82 N10       30.16R WCI  28
EAU CLAIRE     NOT AVBL
BLACK RVR FLS  FAIR      27  27 100 CALM      30.20R
MEDFORD        FAIR      29  28  93 N5        30.18S WCI  24
WAUSAU         FAIR      32  30  92 N7        30.17R WCI  26
WIS RAPIDS     FAIR      36  32  85 N10       30.19R WCI  28
MARSHFIELD     FAIR      34  31  88 N9        30.17R WCI  27
RICE LAKE      FAIR      32  26  77 N6        30.25S WCI  26
$$

...NORTHEAST IOWA...


CITY           SKY/WX    TMP DP  RH WIND       PRES   REMARKS
WATERLOO       FAIR      37  34  89 N9        30.15F WCI  30
DUBUQUE        FAIR      43  30  60 NE10      30.12S
DECORAH        FAIR      39  32  75 N7        30.16S WCI  34
MASON CITY     CLEAR     34  29  82 N12       30.20S WCI  25
CHARLES CITY   FAIR      36  36 100 N8        30.18S WCI  29
OELWEIN        FAIR      37  36  93 N7        30.15F WCI  32
$$

...ELSEWHERE IN IOWA...


CITY           SKY/WX    TMP DP  RH WIND       PRES   REMARKS
DES MOINES     CLOUDY    49  37  63 N8        30.16S
IOWA CITY      MOCLDY    49  35  58 N13       30.13R
FORT DODGE     PTCLDY    39  33  79 N7        30.21R WCI  34
MARSHALLTOWN   PTCLDY    40  36  86 N8        30.15S WCI  34
CEDAR RAPIDS   FAIR      46  36  68 N14       30.11R
$$

...NORTHERN ILLINOIS...


CITY           SKY/WX    TMP DP  RH WIND       PRES   REMARKS
CHICAGO-OHARE  MOCLDY    43  31  62 N16       30.08R
CHICAGO-MIDWAY MOCLDY    43  33  68 N13G24    30.07R
MOLINE         CLOUDY    50  33  52 NE14      30.10R
ROCKFORD       FAIR      42  32  67 NE10      30.13R
PEORIA         FAIR      48  39  71 NE16      30.06R
$$

NOTE: "FAIR" INDICATES FEW OR NO CLOUDS BELOW 12,000 FEET WITH NO
SIGNIFICANT WEATHER AND/OR OBSTRUCTIONS TO VISIBILITY. WIND
SPEEDS ARE IN MILES-PER-HOUR.




USA.gov is the U.S. government's official web portal to all federal, state and local government web resources and services.